Weather History for Ionia, MI

Change the Weather History Date:

Monday, September 9, 2013

  Actual Average (KGRR) Record (KGRR)
Temperature  
Mean Temperature 70 °F 66 °F  
Max Temperature 83 °F 76 °F 95 °F (1897)
Min Temperature 57 °F 55 °F 37 °F (1975)
Degree Days  
Heating Degree Days 0 2  
Month to date heating degree days 16  
Since 1 July heating degree days 36  
Cooling Degree Days 5 3  
Month to date cooling degree days 32  
Year to date cooling degree days 657  
Growing Degree Days 20 (Base 50)    
Moisture  
Dew Point 62 °F    
Average Humidity 83    
Maximum Humidity 99    
Minimum Humidity 61    
Precipitation  
Precipitation 0.61 in 0.14 in 2.25 in (1920)
Month to date precipitation 1.23  
Year to date precipitation 25.95  
Snow  
Snow 0.00 in 0.00 in 0.00 in ()
Month to date snowfall 0.0  
Since 1 July snowfall 0.0  
Since 1 September snowfall 0.0  
Snow Depth -    
Sea Level Pressure  
Sea Level Pressure 29.97 in    
Wind  
Wind Speed 6 mph (SSE)    
Max Wind Speed 13 mph    
Max Gust Speed 17 mph    
Visibility 10 miles    
Events Rain    
T = Trace of Precipitation, MM = Missing Value Source: NWS Daily Summary

Daily Weather History Graph

Daily Weather History Graph

Search for Another Location

Airport:

Trip Planner

Search our weather history database for the weather conditions in past years. The results will help you decide how hot, cold, wet, or windy it might be!

Date:

Astronomy

Sep. 09, 2013 Rise Set
Actual Time 7:13 AM EDT 8:00 PM EDT
Civil Twilight 6:44 AM EDT 8:29 PM EDT
Nautical Twilight 6:10 AM EDT 9:03 PM EDT
Astronomical Twilight 5:35 AM EDT 9:38 PM EDT
Moon 11:42 AM EDT (9/9) 10:08 PM EDT (9/9)
Length of Visible Light 13h 44m
Length of Day
12h 46m
Waxing Crescent, 19% of the Moon is Illuminated
Sep 9
Waxing Crescent
Sep 12
First Quarter
Sep 19
Full
Sep 26
Last Quarter
Oct 4
New

Hourly Weather History & Observations

Time (EDT) Temp. Heat Index Dew Point Humidity Pressure Visibility Wind Dir Wind Speed Gust Speed Precip Events Conditions
12:14 AM 58.1 °F - 53.4 °F 84% 30.06 in 10.0 mi East 5.8 mph - N/A   Clear
12:34 AM 58.1 °F - 53.2 °F 84% 30.06 in 10.0 mi East 5.8 mph - N/A   Clear
12:54 AM 58.1 °F - 53.1 °F 83% 30.07 in 10.0 mi East 4.6 mph - N/A   Clear
1:14 AM 57.7 °F - 52.9 °F 84% 30.07 in 10.0 mi East 4.6 mph - N/A   Clear
1:34 AM 57.7 °F - 52.9 °F 84% 30.06 in 10.0 mi East 4.6 mph - N/A   Clear
1:54 AM 57.6 °F - 53.1 °F 85% 30.06 in 10.0 mi East 4.6 mph - N/A   Clear
2:14 AM 57.6 °F - 53.2 °F 85% 30.06 in 10.0 mi East 4.6 mph - N/A   Clear
2:34 AM 57.4 °F - 53.1 °F 85% 30.05 in 10.0 mi East 5.8 mph - N/A   Clear
2:54 AM 57.6 °F - 53.1 °F 85% 30.05 in 10.0 mi East 4.6 mph - N/A   Mostly Cloudy
3:14 AM 57.7 °F - 52.9 °F 84% 30.05 in 10.0 mi East 5.8 mph - N/A   Mostly Cloudy
3:34 AM 57.7 °F - 52.7 °F 83% 30.05 in 10.0 mi East 4.6 mph - N/A   Scattered Clouds
3:54 AM 57.7 °F - 52.7 °F 83% 30.04 in 10.0 mi East 4.6 mph - N/A   Scattered Clouds
4:14 AM 57.6 °F - 52.9 °F 84% 30.04 in 10.0 mi ESE 4.6 mph - N/A Rain Light Rain
4:34 AM 57.4 °F - 53.6 °F 87% 30.04 in 10.0 mi ESE 5.8 mph - N/A   Light Drizzle
4:54 AM 57.6 °F - 53.6 °F 87% 30.04 in 10.0 mi SE 5.8 mph - N/A   Scattered Clouds
5:14 AM 58.1 °F - 53.8 °F 86% 30.03 in 10.0 mi SE 5.8 mph - N/A   Clear
5:34 AM 58.3 °F - 52.9 °F 82% 30.02 in 10.0 mi SSE 6.9 mph - N/A   Scattered Clouds
5:54 AM 58.1 °F - 53.2 °F 84% 30.02 in 10.0 mi SSE 6.9 mph - N/A   Mostly Cloudy
6:14 AM 58.8 °F - 53.6 °F 83% 30.02 in 10.0 mi South 6.9 mph - N/A   Overcast
6:34 AM 58.6 °F - 54.3 °F 86% 30.03 in 10.0 mi South 4.6 mph - N/A Rain Rain
6:54 AM 58.1 °F - 55.9 °F 93% 30.02 in 10.0 mi SSE 8.1 mph - 0.01 in Rain Rain
7:14 AM 58.1 °F - 56.3 °F 94% 30.00 in 10.0 mi SE 10.4 mph - 0.04 in Rain Rain
7:34 AM 58.3 °F - 56.5 °F 94% 30.01 in 10.0 mi SE 4.6 mph - 0.06 in Rain Light Rain
7:54 AM 59.0 °F - 57.2 °F 94% 30.01 in 10.0 mi SE 6.9 mph - 0.07 in Rain Rain
8:14 AM 59.4 °F - 57.4 °F 93% 30.02 in 10.0 mi SSE 6.9 mph - N/A   Light Drizzle
8:34 AM 59.2 °F - 57.2 °F 93% 30.02 in 10.0 mi SSE 5.8 mph - N/A   Overcast
8:54 AM 59.0 °F - 57.2 °F 94% 30.01 in 10.0 mi ESE 8.1 mph - N/A Rain Light Rain
9:14 AM 59.2 °F - 57.7 °F 95% 30.01 in 10.0 mi SSE 8.1 mph - N/A Rain Light Rain
9:34 AM 59.0 °F - 57.4 °F 94% 30.02 in 7.0 mi ESE 3.5 mph - 0.04 in Rain Rain
9:54 AM 59.0 °F - 57.6 °F 95% 30.02 in 7.0 mi SE 3.5 mph - 0.07 in Rain Rain
10:14 AM 58.6 °F - 57.7 °F 97% 30.03 in 5.0 mi Calm Calm - 0.02 in Rain Rain
10:34 AM 59.0 °F - 58.1 °F 97% 30.03 in 1.0 mi SSE 4.6 mph - 0.29 in Rain Heavy Rain
10:54 AM 59.0 °F - 58.3 °F 97% 30.02 in 4.0 mi SSE 10.4 mph - 0.44 in Rain Rain
11:14 AM 59.9 °F - 59.4 °F 98% 30.00 in 10.0 mi ESE 5.8 mph - 0.02 in Rain Light Rain
11:34 AM 61.7 °F - 61.3 °F 99% 29.99 in 10.0 mi SSE 4.6 mph - 0.02 in   Overcast
11:54 AM 64.4 °F - 63.7 °F 98% 29.99 in 10.0 mi South 8.1 mph - 0.02 in   Mostly Cloudy
12:14 PM 67.5 °F - 65.8 °F 95% 29.99 in 10.0 mi South 9.2 mph - N/A   Scattered Clouds
12:34 PM 70.5 °F - 66.6 °F 87% 29.98 in 10.0 mi South 11.5 mph - N/A   Scattered Clouds
12:54 PM 72.1 °F - 66.2 °F 82% 29.97 in 10.0 mi South 12.7 mph - N/A   Scattered Clouds
1:14 PM 73.8 °F - 66.9 °F 79% 29.97 in 7.0 mi SSW 8.1 mph - N/A   Scattered Clouds
1:34 PM 75.4 °F - 66.9 °F 75% 29.96 in 10.0 mi SSW 6.9 mph - N/A   Clear
1:54 PM 76.1 °F - 67.5 °F 74% 29.95 in 10.0 mi SSW 6.9 mph - N/A   Scattered Clouds
2:14 PM 77.0 °F - 67.8 °F 73% 29.95 in 10.0 mi South 8.1 mph - N/A   Scattered Clouds
2:34 PM 77.7 °F - 68.7 °F 74% 29.94 in 10.0 mi South 10.4 mph - N/A   Clear
2:54 PM 78.4 °F - 69.1 °F 73% 29.93 in 10.0 mi South 4.6 mph - N/A   Scattered Clouds
3:14 PM 79.9 °F - 69.8 °F 71% 29.93 in 10.0 mi South 5.8 mph - N/A   Mostly Cloudy
3:34 PM 81.0 °F 84.4 °F 69.8 °F 69% 29.92 in 10.0 mi SW 5.8 mph - N/A   Scattered Clouds
3:54 PM 82.2 °F 86.0 °F 70.0 °F 66% 29.91 in 10.0 mi South 3.5 mph - N/A   Scattered Clouds
4:14 PM 82.9 °F 86.7 °F 69.4 °F 64% 29.90 in 10.0 mi SSW 6.9 mph - N/A   Clear
4:34 PM 83.3 °F 87.1 °F 69.4 °F 63% 29.90 in 10.0 mi SSW 6.9 mph - N/A   Clear
4:54 PM 83.7 °F 87.5 °F 69.3 °F 62% 29.89 in 10.0 mi SSW 9.2 mph - N/A   Clear
5:14 PM 83.7 °F 87.2 °F 69.1 °F 61% 29.89 in 10.0 mi SSW 10.4 mph - N/A   Clear
5:34 PM 83.7 °F 87.2 °F 69.1 °F 61% 29.88 in 10.0 mi South 10.4 mph - N/A   Clear
5:54 PM 83.3 °F 86.9 °F 69.3 °F 62% 29.88 in 10.0 mi SSW 12.7 mph 17.3 mph N/A   Clear
6:14 PM 82.8 °F 86.4 °F 69.3 °F 64% 29.88 in 10.0 mi South 10.4 mph - N/A   Clear
6:34 PM 82.4 °F 85.8 °F 69.3 °F 64% 29.88 in 10.0 mi SSW 8.1 mph - N/A   Clear
6:54 PM 82.0 °F 85.9 °F 70.0 °F 67% 29.88 in 10.0 mi SSW 5.8 mph - N/A   Clear
7:14 PM 81.1 °F 84.9 °F 70.3 °F 70% 29.87 in 10.0 mi South 5.8 mph - N/A   Clear
7:34 PM 80.6 °F 84.2 °F 70.7 °F 72% 29.87 in 10.0 mi South 5.8 mph - N/A   Clear
7:54 PM 78.8 °F - 70.7 °F 76% 29.87 in 10.0 mi South 5.8 mph - N/A   Clear
8:14 PM 75.7 °F - 70.7 °F 84% 29.87 in 10.0 mi SSE 6.9 mph - N/A   Clear
8:34 PM 75.0 °F - 70.7 °F 86% 29.87 in 10.0 mi SSE 6.9 mph - N/A   Clear
8:54 PM 74.3 °F - 70.9 °F 89% 29.87 in 10.0 mi SE 8.1 mph - N/A   Clear
9:14 PM 73.8 °F - 70.9 °F 91% 29.87 in 7.0 mi SE 8.1 mph - N/A   Clear
9:34 PM 73.4 °F - 70.9 °F 92% 29.87 in 7.0 mi SSE 6.9 mph - N/A   Clear
9:54 PM 74.3 °F - 71.6 °F 91% 29.86 in 7.0 mi SSE 9.2 mph - N/A   Clear
10:14 PM 75.6 °F - 72.0 °F 89% 29.86 in 10.0 mi South 9.2 mph - N/A   Clear
10:34 PM 76.3 °F - 71.6 °F 85% 29.86 in 10.0 mi South 11.5 mph - N/A   Clear
10:54 PM 76.3 °F - 71.6 °F 85% 29.86 in 10.0 mi South 8.1 mph - N/A   Clear
11:14 PM 76.3 °F - 71.1 °F 84% 29.86 in 10.0 mi South 6.9 mph - N/A   Clear
11:34 PM 76.5 °F - 71.1 °F 83% 29.86 in 10.0 mi South 6.9 mph - N/A   Clear
11:54 PM 77.0 °F - 71.1 °F 82% 29.86 in 10.0 mi SSW 8.1 mph - N/A   Clear